Date,TemperatureHighF,TemperatureAvgF,TemperatureLowF,DewpointHighF,DewpointAvgF,DewpointLowF,HumidityHigh,HumidityAvg,HumidityLow,PressureMaxIn,PressureMinIn,WindSpeedMaxMPH,WindSpeedAvgMPH,GustSpeedMaxMPH,PrecipitationSumIn
2013-1-1,69,62,55,66,61,55,100,97,90,30.08,29.92,12,2,0,0.05
2013-1-2,55,51,45,55,49,44,97,92,85,30.20,30.00,6,1,0,0.06
2013-1-3,49,43,36,44,39,32,99,86,60,30.37,30.19,8,1,0,0.33
2013-1-4,59,46,36,43,36,31,87,69,39,30.44,30.31,6,0,0,0.00
2013-1-5,52,48,42,43,39,36,83,71,63,30.36,30.23,4,0,0,0.00
2013-1-6,51,48,44,50,46,41,98,91,71,30.29,30.18,5,0,0,0.08
2013-1-7,62,49,39,47,43,38,98,83,48,30.32,30.18,7,1,0,0.00
2013-1-8,64,56,45,62,54,43,96,91,85,30.22,30.11,12,3,0,0.00
2013-1-9,69,66,62,68,65,61,99,96,93,30.21,30.11,17,7,0,0.00
2013-1-10,68,64,61,67,64,61,100,99,97,30.20,29.96,20,7,0,0.22
2013-1-11,72,66,62,70,66,61,100,98,91,30.12,30.03,10,4,0,0.01
2013-1-12,71,67,65,70,67,65,100,99,94,30.08,29.94,14,7,0,0.00
2013-1-13,69,66,57,69,66,57,100,99,96,30.02,29.92,12,4,0,0.08
2013-1-14,57,52,44,57,52,44,100,99,98,30.11,30.02,6,1,0,0.08
2013-1-15,59,52,45,59,52,45,100,100,100,30.07,29.94,4,0,0,0.06
2013-1-16,53,46,40,53,45,39,100,97,92,30.09,29.95,12,2,0,0.03
2013-1-17,54,44,37,41,38,34,97,81,58,30.39,30.10,15,4,0,0.00
2013-1-18,61,46,37,48,40,36,96,83,56,30.51,30.38,7,1,0,0.00
2013-1-19,66,48,36,53,44,36,99,87,60,30.39,30.25,7,1,0,0.00
2013-1-20,66,50,39,54,47,38,100,89,59,30.27,30.13,8,0,0,0.00
2013-1-21,67,53,40,51,46,40,100,78,49,30.22,30.13,5,0,0,0.00
2013-1-22,61,49,41,45,39,33,96,72,43,30.36,30.20,5,1,0,0.00
2013-1-23,65,52,38,53,47,38,99,84,62,30.40,30.30,9,1,0,0.00
2013-1-24,69,58,44,60,54,43,100,87,72,30.35,30.23,7,1,0,0.00
2013-1-25,69,60,49,61,56,48,100,90,73,30.28,30.15,9,2,0,0.00
2013-1-26,72,61,51,65,59,51,100,93,76,30.25,30.18,6,1,0,0.00
2013-1-27,71,62,51,65,60,51,100,94,79,30.30,30.23,11,3,0,0.00
2013-1-28,74,66,58,68,64,58,100,94,80,30.27,30.13,13,5,0,0.00
2013-1-29,70,68,65,69,68,65,100,99,94,30.12,29.84,16,5,0,0.04
2013-1-30,69,59,44,69,56,37,100,89,62,30.15,29.70,16,5,0,0.61
2013-1-31,62,48,35,41,37,32,95,68,34,30.33,30.16,7,1,0,0.00
2013-2-1,66,50,42,45,41,38,93,74,40,30.41,30.31,5,0,0,0.00
2013-2-2,65,50,38,55,45,33,98,82,66,30.35,30.19,11,2,0,0.00
2013-2-3,66,54,44,54,48,43,100,81,52,30.27,30.13,7,1,0,0.00
2013-2-4,62,52,41,58,48,40,99,88,62,30.12,29.97,6,1,0,0.24
2013-2-5,68,60,54,64,59,54,100,95,84,30.04,29.93,12,1,0,0.36
2013-2-6,68,60,54,63,58,54,100,96,83,30.14,30.00,12,2,0,0.02
2013-2-7,75,64,54,66,60,54,100,90,68,30.00,29.81,15,3,0,1.46
2013-2-8,74,61,52,64,57,52,100,89,70,30.16,29.94,5,0,0,0.00
2013-2-9,66,57,48,60,53,46,96,87,74,30.24,30.09,12,3,0,0.00
2013-2-10,69,66,61,68,64,60,100,95,91,30.08,29.95,18,6,0,0.06
2013-2-11,68,62,57,68,62,57,100,99,95,30.10,29.97,11,2,0,0.35
2013-2-12,69,62,57,69,62,57,100,99,98,30.04,29.75,15,2,0,0.09
2013-2-13,66,52,43,66,51,42,99,96,86,30.07,29.79,14,2,0,0.15
2013-2-14,58,47,40,49,44,40,99,89,65,30.17,30.05,6,0,0,0.00
2013-2-15,65,50,37,48,44,37,100,82,47,30.18,30.06,8,1,0,0.00
2013-2-16,56,48,34,43,32,21,82,57,28,30.30,30.12,17,3,0,0.00
2013-2-17,56,45,31,42,34,28,92,69,48,30.39,30.25,12,2,0,0.00
2013-2-18,64,59,53,60,53,42,93,80,67,30.25,30.00,19,7,0,0.00
2013-2-19,69,60,46,61,47,32,99,68,31,30.22,29.98,19,2,0,0.29
2013-2-20,59,49,42,42,36,30,93,63,40,30.28,30.06,9,2,0,0.00
2013-2-21,65,57,46,64,53,39,98,86,72,30.05,29.83,15,4,0,0.00
2013-2-22,69,64,58,69,61,55,100,92,64,29.97,29.86,10,1,0,1.26
2013-2-23,60,58,55,60,57,52,100,97,88,29.95,29.81,6,1,0,1.05
2013-2-24,67,58,48,61,55,47,99,90,77,29.98,29.79,8,2,0,0.35
2013-2-25,67,62,60,67,62,59,100,99,91,29.80,29.48,20,6,0,3.36
2013-2-26,61,55,48,56,45,39,92,70,54,29.93,29.53,11,3,0,0.00
2013-2-27,63,55,46,55,48,44,97,80,51,30.03,29.92,11,2,0,0.00
2013-2-28,60,51,41,47,40,33,93,68,41,30.11,30.01,9,1,0,0.00
2013-3-1,62,49,40,42,37,32,92,66,36,30.16,30.00,14,2,0,0.00
2013-3-2,51,42,34,34,31,28,88,67,51,30.24,30.12,13,3,0,0.00
2013-3-3,58,42,30,41,29,26,92,64,31,30.27,30.14,9,1,0,0.00
2013-3-4,65,54,38,57,49,37,99,83,65,30.16,29.98,14,4,0,0.00
2013-3-5,76,63,48,64,56,44,92,78,49,30.17,29.94,13,3,0,0.00
2013-3-6,65,51,39,44,35,32,89,57,31,30.30,30.17,12,2,0,0.00
2013-3-7,58,48,40,45,39,34,93,72,50,30.35,30.23,10,1,0,0.00
2013-3-8,67,52,38,51,45,38,99,78,47,30.31,30.19,9,1,0,0.00
2013-3-9,68,59,47,61,55,46,98,88,61,30.20,30.00,15,5,0,0.00
2013-3-10,74,67,62,67,64,60,96,90,79,30.03,29.89,18,9,0,0.00
2013-3-11,66,57,46,65,53,44,98,88,68,30.01,29.83,13,3,0,0.01
2013-3-12,70,52,40,44,41,39,94,70,35,30.20,30.00,7,1,0,0.00
2013-3-13,69,54,40,43,36,28,93,58,23,30.37,30.20,8,1,0,0.00
2013-3-14,68,52,42,44,35,27,91,57,26,30.44,30.30,8,1,0,0.00
2013-3-15,69,56,42,55,49,42,99,78,49,30.31,30.14,8,2,0,0.00
2013-3-16,74,64,50,63,58,49,99,83,64,30.14,29.98,13,3,0,0.00
2013-3-17,75,64,56,66,62,56,100,91,72,30.00,29.87,10,3,0,0.00
2013-3-18,79,70,65,72,67,62,98,91,78,29.91,29.77,9,4,0,0.00
2013-3-19,79,66,57,68,59,50,98,80,52,30.03,29.86,10,2,0,0.01
2013-3-20,71,59,47,50,42,35,79,57,31,30.12,29.97,7,1,0,0.00
2013-3-21,68,55,44,47,40,34,76,59,33,30.07,29.89,9,2,0,0.00
2013-3-22,69,62,53,62,56,41,91,81,57,29.91,29.81,14,5,0,0.02
2013-3-23,75,68,62,71,66,61,99,94,88,29.86,29.58,11,4,0,0.22
2013-3-24,76,66,50,70,57,36,100,75,39,29.96,29.57,16,4,0,0.00
2013-3-25,62,50,39,37,32,25,80,54,25,30.23,29.97,13,2,0,0.00
2013-3-26,60,47,36,33,31,27,79,56,31,30.37,30.23,13,1,0,0.00
2013-3-27,58,46,35,42,36,31,93,69,47,30.45,30.30,9,2,0,0.00
2013-3-28,66,52,39,48,43,38,99,76,38,30.36,30.25,12,2,0,0.00
2013-3-29,70,56,44,60,52,43,100,87,58,30.33,30.21,9,2,0,0.00
2013-3-30,73,63,51,63,58,50,100,85,60,30.21,30.03,17,3,0,0.00
2013-3-31,76,65,56,69,63,56,100,93,79,30.07,29.86,13,2,0,0.21
2013-4-1,79,64,56,65,60,55,100,89,52,30.07,29.92,5,0,0,0.00
2013-4-2,78,65,52,64,58,51,100,80,48,30.12,29.97,12,2,0,0.00
2013-4-3,68,61,56,65,60,54,100,95,87,30.05,29.76,27,3,0,1.93
2013-4-4,66,58,53,60,55,51,98,90,77,29.99,29.88,6,1,0,0.00
2013-4-5,72,57,50,55,50,47,92,79,51,30.13,29.98,6,1,0,0.00
2013-4-6,71,60,45,59,53,44,100,81,58,30.18,30.08,11,2,0,0.00
2013-4-7,78,66,53,65,61,52,99,84,64,30.13,30.01,11,3,0,0.00
2013-4-8,81,71,64,71,68,64,99,89,72,30.05,29.96,14,4,0,0.00
2013-4-9,81,73,70,74,71,69,98,92,77,30.05,29.94,13,6,0,0.00
2013-4-10,82,74,70,74,71,69,97,90,75,30.00,29.86,18,6,0,0.00
2013-4-11,79,69,57,75,68,56,99,96,88,29.85,29.61,17,5,0,0.98
2013-4-12,76,61,51,56,52,50,97,76,40,29.97,29.81,6,0,0,0.00
2013-4-13,77,65,51,61,56,49,92,74,47,30.05,29.90,12,2,0,0.00
2013-4-14,68,63,58,66,61,57,100,95,81,29.91,29.76,14,2,0,1.98
2013-4-15,76,70,63,73,69,63,100,97,91,30.01,29.81,12,3,0,0.00
2013-4-16,82,74,71,77,72,70,100,94,81,30.11,29.99,13,4,0,0.00
2013-4-17,81,74,69,76,72,69,100,93,84,30.10,29.99,19,6,0,0.00
2013-4-18,78,74,71,75,72,70,97,93,86,29.99,29.84,15,5,0,0.00
2013-4-19,76,55,45,74,54,45,100,98,82,30.19,29.80,10,1,0,0.17
2013-4-20,73,55,42,51,46,41,100,76,38,30.27,30.12,7,1,0,0.00
2013-4-21,74,60,49,59,52,46,95,76,47,30.21,30.11,10,2,0,0.00
2013-4-22,78,64,51,69,60,51,99,88,74,30.13,30.04,15,4,0,0.00
2013-4-23,77,71,67,70,67,64,94,87,77,30.10,30.02,15,6,0,0.00
2013-4-24,71,69,61,70,68,60,99,96,92,30.15,30.02,11,2,0,0.37
2013-4-25,79,64,56,67,58,52,97,81,57,30.29,30.15,3,0,0,0.00
2013-4-26,76,66,56,65,58,50,94,74,58,30.28,30.21,12,2,0,0.00
2013-4-27,79,71,63,72,68,63,100,91,78,30.21,30.03,11,3,0,0.00
2013-4-28,77,71,67,74,70,66,99,94,84,30.07,29.94,10,1,0,0.05
2013-4-29,81,71,63,72,68,63,100,90,68,29.98,29.88,10,1,0,0.00
2013-4-30,77,70,66,73,69,66,100,95,85,29.94,29.86,13,3,0,0.76
2013-5-1,77,69,64,74,69,64,100,98,89,29.91,29.82,15,2,0,1.06
2013-5-2,73,68,64,70,67,64,100,97,88,29.96,29.84,13,2,0,0.39
2013-5-3,74,64,49,70,62,48,99,95,83,29.99,29.84,9,2,0,0.14
2013-5-4,72,58,44,54,47,43,97,71,37,30.01,29.87,5,0,0,0.00
2013-5-5,68,62,52,58,51,45,87,68,46,30.02,29.84,7,1,0,0.00
2013-5-6,73,62,48,57,52,45,94,72,50,30.03,29.91,9,1,0,0.00
2013-5-7,75,65,54,66,60,53,99,83,62,30.04,29.96,12,1,0,0.00
2013-5-8,79,69,58,69,64,57,100,83,62,30.11,30.00,11,2,0,0.00
2013-5-9,79,72,65,72,68,64,99,87,77,30.14,30.04,14,3,0,0.00
2013-5-10,73,70,65,71,68,64,99,95,86,30.13,29.86,17,4,0,0.77
2013-5-11,74,68,62,70,67,62,100,96,88,30.05,29.94,5,1,0,0.36
2013-5-12,80,70,61,67,62,59,100,79,56,30.13,30.01,4,0,0,0.00
2013-5-13,79,65,54,58,54,49,91,70,36,30.29,30.12,9,1,0,0.00
2013-5-14,79,68,55,65,60,54,99,77,46,30.28,30.16,11,2,0,0.00
2013-5-15,81,71,60,67,63,56,99,77,53,30.21,30.04,9,2,0,0.00
2013-5-16,80,75,70,74,71,66,95,87,79,30.05,29.95,14,5,0,0.00
2013-5-17,82,77,74,77,74,72,96,91,82,30.05,29.96,11,4,0,0.00
2013-5-18,84,79,76,77,75,74,94,87,76,30.08,29.99,10,4,0,0.00
2013-5-19,82,78,76,77,75,74,94,90,85,30.04,29.97,11,3,0,0.00
2013-5-20,85,79,75,79,76,74,95,89,79,30.03,29.95,13,4,0,0.00
2013-5-21,85,79,76,77,75,73,92,86,74,29.98,29.86,13,5,0,0.00
2013-5-22,79,74,69,75,72,68,99,92,80,30.04,29.89,7,1,0,0.28
2013-5-23,85,77,67,77,73,67,100,88,71,30.04,29.94,7,1,0,0.00
2013-5-24,90,80,72,76,71,65,99,77,56,30.15,30.01,8,0,0,0.00
2013-5-25,84,74,65,69,62,55,93,67,50,30.24,30.13,11,2,0,0.00
2013-5-26,84,75,64,73,67,63,99,80,55,30.19,30.11,9,2,0,0.00
2013-5-27,84,79,77,74,70,66,88,74,54,30.14,30.05,12,6,0,0.00
2013-5-28,85,78,70,75,71,67,91,78,64,30.09,30.01,12,4,0,0.00
2013-5-29,85,79,76,78,75,72,97,87,78,30.04,29.98,19,8,0,0.30
2013-5-30,83,79,76,78,75,74,97,88,81,30.04,29.97,18,8,0,0.10
2013-5-31,84,80,78,79,76,75,95,90,84,30.03,29.95,16,7,0,0.14
2013-6-1,86,81,77,80,77,75,95,88,80,29.99,29.93,10,4,0,0.00
2013-6-2,87,78,68,77,74,68,99,88,69,30.01,29.86,9,1,0,0.57
2013-6-3,88,79,72,80,76,72,99,88,73,29.92,29.82,10,1,0,0.02
2013-6-4,88,81,75,81,77,75,100,89,75,29.93,29.87,13,4,0,0.03
2013-6-5,87,82,78,81,77,74,90,85,77,29.93,29.83,13,4,0,0.00
2013-6-6,92,77,68,76,71,67,98,84,54,29.85,29.72,11,1,0,0.06
2013-6-7,87,76,69,75,72,69,100,89,60,29.89,29.76,2,0,0,0.02
2013-6-8,87,79,72,78,74,70,96,87,69,30.00,29.88,11,2,0,0.02
2013-6-9,82,78,74,77,75,72,97,90,83,29.99,29.92,17,4,0,0.07
2013-6-10,84,80,72,79,77,71,100,91,80,30.04,29.96,12,1,0,0.66
2013-6-11,89,83,76,81,78,76,99,85,68,30.09,30.01,8,1,0,0.00
2013-6-12,90,83,76,81,77,75,99,84,65,30.09,30.00,8,1,0,0.00
2013-6-13,91,84,77,80,76,71,96,80,55,30.05,29.87,7,1,0,0.00
2013-6-14,94,84,78,82,76,71,96,78,56,29.93,29.85,5,0,0,0.00
2013-6-15,90,81,72,82,75,68,93,81,69,30.00,29.92,11,2,0,0.00
2013-6-16,91,83,76,83,78,75,99,86,71,30.03,29.96,9,2,0,0.00
2013-6-17,88,83,77,80,78,75,96,83,72,30.02,29.93,11,2,0,0.00
2013-6-18,90,84,78,78,76,72,91,76,58,30.00,29.88,13,2,0,0.00
2013-6-19,87,80,73,78,75,71,97,83,69,30.02,29.93,5,0,0,0.00
2013-6-20,92,78,72,79,74,71,99,90,63,30.09,30.00,19,1,0,1.07
2013-6-21,88,77,70,81,74,70,100,91,71,30.11,30.04,9,1,0,0.01
2013-6-22,86,78,73,79,75,71,99,90,74,30.10,29.99,13,1,0,0.00
2013-6-23,89,80,73,80,76,72,99,89,71,30.08,30.01,11,2,0,0.11
2013-6-24,88,82,76,80,77,75,99,86,69,30.14,30.05,11,2,0,0.00
2013-6-25,90,83,78,80,77,76,95,81,66,30.11,30.01,13,2,0,0.00
2013-6-26,90,84,77,81,78,76,98,83,70,30.06,29.96,10,2,0,0.02
2013-6-27,94,85,79,83,79,77,94,83,68,30.01,29.90,10,1,0,0.00
2013-6-28,94,86,80,82,79,77,97,82,63,29.93,29.76,6,1,0,0.00
2013-6-29,91,82,74,80,76,70,91,81,64,29.81,29.67,5,0,0,0.00
2013-6-30,94,81,73,76,71,64,97,74,37,29.78,29.70,7,0,0,0.00
2013-7-1,91,79,70,72,69,67,92,72,49,29.90,29.78,5,0,0,0.00
2013-7-2,89,79,71,74,71,68,90,76,56,29.99,29.88,8,1,0,0.00
2013-7-3,87,76,72,78,74,71,100,92,70,30.02,29.92,4,0,0,1.35
2013-7-4,86,78,72,80,76,72,100,92,77,29.98,29.91,10,1,0,0.09
2013-7-5,78,75,71,77,74,71,100,98,89,30.07,29.93,15,2,0,0.38
2013-7-6,76,74,73,76,74,72,100,99,96,30.05,29.96,8,2,0,1.54
2013-7-7,79,76,74,79,76,74,100,99,95,30.12,29.99,9,1,0,0.62
2013-7-8,86,77,74,82,76,74,100,95,83,30.16,30.05,9,1,0,0.00
2013-7-9,87,80,73,80,76,73,100,89,74,30.19,30.08,8,1,0,0.00
2013-7-10,88,80,76,81,77,74,99,91,73,30.10,29.97,6,1,0,0.03
2013-7-11,81,76,72,79,75,71,100,99,87,30.02,29.87,10,0,0,1.13
2013-7-12,88,76,70,80,74,70,100,94,76,29.93,29.84,7,1,0,0.24
2013-7-13,86,76,71,79,74,71,100,95,77,29.95,29.86,13,1,0,0.06
2013-7-14,86,78,72,79,75,72,100,90,73,30.02,29.91,11,1,0,0.01
2013-7-15,88,80,74,80,76,73,99,90,75,30.10,30.00,14,2,0,0.00
2013-7-16,83,79,75,79,76,74,97,91,82,30.17,30.06,21,4,0,0.01
2013-7-17,90,80,74,81,76,73,97,89,72,30.20,30.11,9,1,0,0.01
2013-7-18,88,79,72,80,76,72,99,89,71,30.15,30.00,11,1,0,0.01
2013-7-19,87,79,73,80,76,72,99,90,76,30.06,29.95,12,2,0,0.00
2013-7-20,86,80,74,80,77,74,99,89,76,30.00,29.92,9,1,0,0.00
2013-7-21,83,78,73,79,76,72,100,92,80,30.07,29.98,8,1,0,0.80
2013-7-22,86,79,74,81,77,73,100,94,81,30.06,29.99,9,1,0,0.62
2013-7-23,90,82,77,82,78,76,100,89,66,30.05,29.92,5,1,0,0.01
2013-7-24,90,83,78,81,78,77,97,85,64,29.96,29.86,7,1,0,0.00
2013-7-25,91,81,75,80,76,74,96,86,63,30.01,29.88,6,0,0,0.01
2013-7-26,91,80,73,81,75,71,97,84,61,30.05,29.95,6,0,0,0.00
2013-7-27,82,78,75,80,77,73,100,95,86,29.97,29.87,3,0,0,0.45
2013-7-28,87,80,75,80,77,74,99,90,74,30.00,29.86,7,0,0,0.01
2013-7-29,90,81,75,82,78,75,99,91,71,30.09,29.98,6,0,0,0.00
2013-7-30,90,83,77,82,79,76,99,88,74,30.13,30.05,7,1,0,0.00
2013-7-31,90,82,78,82,78,75,98,89,74,30.10,29.97,9,1,0,0.01
2013-8-1,92,83,76,81,78,74,98,87,67,30.00,29.91,5,0,0,0.00
2013-8-2,93,82,73,84,77,73,99,87,67,30.02,29.91,7,1,0,0.00
2013-8-3,92,83,75,80,78,74,100,84,63,30.06,29.97,7,1,0,0.00
2013-8-4,95,85,78,82,79,77,97,82,60,30.08,29.96,6,0,0,0.00
2013-8-5,95,83,77,83,78,74,97,87,66,30.04,29.92,6,1,0,0.03
2013-8-6,92,84,77,82,79,76,98,84,67,29.99,29.89,9,1,0,0.01
2013-8-7,91,83,76,84,79,75,99,90,74,29.97,29.90,6,1,0,0.00
2013-8-8,91,84,79,82,80,76,98,86,71,29.96,29.90,11,2,0,0.00
2013-8-9,88,82,77,82,79,77,100,90,78,30.02,29.92,16,2,0,0.29
2013-8-10,91,84,78,81,78,75,96,81,68,30.08,29.99,9,2,0,0.00
2013-8-11,90,85,79,81,78,76,94,82,71,30.11,30.05,8,2,0,0.00
2013-8-12,87,83,78,82,79,76,96,88,76,30.10,30.00,7,1,0,0.07
2013-8-13,91,80,74,81,77,73,99,91,69,30.03,29.95,9,1,0,0.03
2013-8-14,79,75,74,77,75,73,100,97,88,29.99,29.89,6,0,0,0.37
2013-8-15,87,78,73,79,75,73,100,91,71,29.99,29.90,3,0,0,0.00
2013-8-16,88,79,74,79,75,73,98,89,69,29.98,29.91,7,1,0,0.07
2013-8-17,78,75,73,75,74,72,99,96,89,29.99,29.91,7,1,0,0.26
2013-8-18,82,75,72,78,74,72,100,98,89,30.00,29.91,17,2,0,3.52
2013-8-19,86,78,70,80,76,70,100,93,80,30.04,29.96,8,1,0,0.01
2013-8-20,87,80,73,81,77,73,100,91,78,30.06,29.98,9,2,0,0.00
2013-8-21,86,79,74,80,77,73,100,93,75,30.13,30.03,9,1,0,0.14
2013-8-22,89,80,74,81,77,73,98,89,70,30.09,29.96,16,2,0,0.06
2013-8-23,83,77,74,79,76,73,100,95,84,30.02,29.93,11,2,0,0.14
2013-8-24,79,76,73,77,75,73,100,97,90,30.11,29.97,14,2,0,0.39
2013-8-25,83,77,74,78,76,74,100,96,83,30.18,30.07,12,2,0,0.22
2013-8-26,84,77,73,76,74,72,100,90,69,30.19,30.09,10,2,0,0.00
2013-8-27,85,76,68,74,70,67,97,85,65,30.12,30.03,8,0,0,0.00
2013-8-28,85,76,67,74,70,66,99,85,63,30.08,30.00,6,0,0,0.00
2013-8-29,87,78,69,74,71,69,100,81,57,30.07,29.98,6,0,0,0.00
2013-8-30,89,80,72,77,73,71,99,82,59,30.03,29.91,7,1,0,0.00
2013-8-31,90,81,74,80,75,72,97,83,68,29.97,29.85,7,0,0,0.00
2013-9-1,91,83,77,80,78,73,98,84,65,29.93,29.85,6,1,0,0.00
2013-9-2,89,84,77,81,78,76,98,84,67,29.98,29.87,10,1,0,0.00
2013-9-3,90,82,77,82,78,74,97,88,74,29.98,29.88,9,1,0,0.00
2013-9-4,89,81,74,81,77,72,99,88,74,30.05,29.95,8,1,0,0.00
2013-9-5,89,81,75,80,78,75,99,88,73,30.11,30.02,10,1,0,0.00
2013-9-6,88,80,75,79,77,74,99,89,73,30.09,29.98,9,1,0,0.00
2013-9-7,89,80,73,78,75,72,99,86,67,30.05,29.96,8,1,0,0.00
2013-9-8,88,80,72,79,75,71,99,87,68,30.00,29.94,6,1,0,0.00
2013-9-9,89,80,72,77,75,72,99,85,63,30.04,29.95,8,1,0,0.00
2013-9-10,89,81,73,79,75,72,98,84,65,30.11,30.01,13,2,0,0.00
2013-9-11,90,81,74,79,75,73,95,81,65,30.11,30.02,15,2,0,0.00
2013-9-12,89,80,71,79,75,70,98,84,68,30.04,29.91,11,1,0,0.00
2013-9-13,89,80,73,77,75,72,99,83,65,29.93,29.81,8,1,0,0.00
2013-9-14,87,79,73,76,73,69,96,81,64,29.98,29.85,8,1,0,0.00
2013-9-15,88,79,71,80,73,65,94,81,71,30.05,29.96,13,2,0,0.00
2013-9-16,89,80,73,80,76,72,99,87,71,30.08,29.99,8,1,0,0.00
2013-9-17,88,80,73,80,76,72,97,86,71,30.07,29.96,11,2,0,0.00
2013-9-18,86,79,76,79,76,74,97,91,78,30.05,29.99,9,2,0,0.00
2013-9-19,86,79,75,79,76,74,98,92,80,30.05,29.97,22,4,0,0.00
2013-9-20,87,82,79,80,78,76,98,88,78,30.00,29.82,21,4,0,0.64
2013-9-21,82,78,72,79,76,72,99,95,85,29.82,29.71,10,1,0,0.65
2013-9-22,80,74,69,73,70,66,99,88,74,29.80,29.72,10,1,0,0.00
2013-9-23,85,77,68,80,73,64,95,87,80,29.85,29.78,10,2,0,0.00
2013-9-24,82,78,76,79,77,76,100,97,90,29.87,29.75,12,2,0,0.68
2013-9-25,84,77,72,78,74,72,100,92,71,29.83,29.75,8,1,0,0.00
2013-9-26,86,75,66,73,70,65,98,84,60,29.93,29.80,7,0,0,0.00
2013-9-27,82,76,71,73,71,70,97,87,69,30.02,29.92,11,1,0,0.00
2013-9-28,83,74,68,72,69,65,96,85,65,30.07,29.99,8,1,0,0.00
2013-9-29,83,74,67,73,69,66,98,86,70,30.04,29.94,9,1,0,0.00
2013-9-30,80,75,71,75,72,68,98,90,84,29.98,29.92,7,1,0,0.03
2013-10-1,84,77,71,78,73,70,98,89,76,30.04,29.95,11,2,0,0.00
2013-10-2,83,78,73,78,75,72,99,92,79,30.05,29.96,12,2,0,0.03
2013-10-3,85,79,74,80,76,73,99,91,80,30.04,29.96,18,4,0,0.02
2013-10-4,86,79,75,80,76,74,99,91,79,30.04,29.96,14,2,0,0.00
2013-10-5,86,80,75,79,76,75,99,90,75,30.01,29.91,17,3,0,0.04
2013-10-6,81,75,68,78,74,63,100,95,83,29.91,29.77,9,1,0,0.39
2013-10-7,75,67,60,63,57,55,90,73,50,30.02,29.89,11,0,0,0.00
2013-10-8,76,64,55,64,58,53,96,82,57,30.03,29.96,5,0,0,0.00
2013-10-9,81,70,60,75,67,59,99,91,80,30.08,29.99,9,1,0,0.00
2013-10-10,81,73,68,74,70,67,97,90,73,30.10,30.00,8,2,0,0.00
2013-10-11,82,74,66,75,71,66,100,91,75,30.05,29.97,9,1,0,0.00
2013-10-12,82,75,68,74,71,68,100,88,70,30.09,29.99,8,1,0,0.00
2013-10-13,83,75,69,76,72,69,100,91,72,30.16,30.05,6,0,0,0.00
2013-10-14,83,73,66,71,68,65,99,86,60,30.11,30.01,8,1,0,0.00
2013-10-15,81,74,67,74,70,66,98,88,73,30.05,29.95,8,1,0,0.00
2013-10-16,82,76,68,74,71,67,97,84,73,30.01,29.92,8,2,0,0.00
2013-10-17,80,76,67,76,72,64,99,88,78,29.97,29.89,11,1,0,0.05
2013-10-18,75,68,64,64,63,60,95,83,65,30.03,29.91,4,0,0,0.00
2013-10-19,67,64,59,67,63,59,100,95,83,30.01,29.91,5,0,0,0.34
2013-10-20,72,63,55,63,59,55,99,89,66,30.06,29.97,5,0,0,0.00
2013-10-21,72,65,60,66,62,58,95,88,77,30.06,29.97,2,0,0,0.00
2013-10-22,77,68,62,67,62,59,96,81,56,29.98,29.89,4,0,0,0.00
2013-10-23,73,62,54,59,53,48,95,74,41,30.13,29.97,4,0,0,0.00
2013-10-24,72,60,49,60,54,47,96,81,57,30.23,30.11,6,1,0,0.00
2013-10-25,66,59,52,56,49,45,97,72,46,30.38,30.21,5,0,0,0.00
2013-10-26,69,56,46,50,45,37,93,69,31,30.31,30.16,5,0,0,0.00
2013-10-27,73,60,48,65,57,48,99,90,69,30.16,30.07,6,0,0,0.04
2013-10-28,77,66,57,69,63,57,100,91,72,30.19,30.08,8,1,0,0.00
2013-10-29,77,68,60,70,65,59,100,91,77,30.25,30.17,11,2,0,0.01
2013-10-30,78,70,62,73,68,62,100,93,80,30.20,30.05,11,2,0,0.00
2013-10-31,78,75,71,74,72,70,99,91,84,30.04,29.83,13,4,0,0.32
2013-11-1,74,68,57,72,66,55,100,92,78,29.92,29.79,8,1,0,0.01
2013-11-2,74,62,52,59,53,48,98,75,51,30.14,29.90,6,0,0,0.00
2013-11-3,66,55,48,54,49,45,94,80,55,30.23,30.14,10,1,0,0.00
2013-11-4,71,61,48,62,56,47,95,82,71,30.25,30.15,14,2,0,0.00
2013-11-5,74,67,62,65,61,57,97,82,73,30.24,30.13,13,4,0,0.00
2013-11-6,78,69,60,72,66,58,94,89,84,30.14,30.05,15,3,0,0.00
2013-11-7,71,60,49,70,55,43,97,84,64,30.28,30.03,8,1,0,0.00
2013-11-8,65,53,45,44,41,38,84,66,40,30.33,30.18,12,1,0,0.00
2013-11-9,72,59,46,63,54,42,96,84,67,30.24,30.16,8,1,0,0.00
2013-11-10,74,63,55,60,57,52,93,81,53,30.26,30.16,6,0,0,0.00
2013-11-11,74,60,49,60,54,48,96,81,45,30.24,30.13,7,1,0,0.00
2013-11-12,71,56,44,57,49,32,99,79,57,30.45,30.17,8,1,0,0.00
2013-11-13,55,44,36,34,29,24,80,58,37,30.51,30.40,7,1,0,0.00
2013-11-14,66,53,36,54,43,31,83,71,58,30.41,30.13,9,1,0,0.00
2013-11-15,71,64,58,69,62,53,99,93,78,30.13,29.98,13,2,0,0.26
2013-11-16,71,67,62,70,67,62,100,98,94,30.07,29.98,18,4,0,0.00
2013-11-17,76,71,68,74,70,68,100,98,90,30.00,29.91,11,2,0,0.13
2013-11-18,72,66,58,72,63,46,100,91,62,30.08,29.94,5,0,0,0.15
2013-11-19,63,55,47,48,44,40,80,67,49,30.15,30.03,8,0,0,0.00
2013-11-20,69,56,41,62,51,38,97,86,71,30.13,30.05,8,1,0,0.00
2013-11-21,72,64,59,67,62,57,96,92,85,30.22,30.12,11,2,0,0.00
2013-11-22,78,68,63,73,66,62,99,94,84,30.21,30.14,10,2,0,0.01
2013-11-23,66,61,50,64,58,44,98,91,77,30.30,30.15,9,0,0,0.00
2013-11-24,55,48,42,44,34,29,79,60,39,30.37,30.27,12,1,0,0.00
2013-11-25,65,52,42,65,47,30,100,84,63,30.29,29.83,15,3,0,0.25
2013-11-26,66,51,44,66,51,44,100,97,93,29.98,29.73,13,2,0,0.91
2013-11-27,50,42,34,43,35,30,99,78,52,30.40,29.98,7,1,0,0.01
2013-11-28,50,38,30,36,31,27,95,78,42,30.49,30.38,2,0,0,0.00
2013-11-29,59,41,29,40,34,28,96,79,37,30.54,30.41,6,0,0,0.00
2013-11-30,67,48,34,54,43,32,97,85,51,30.44,30.25,5,0,0,0.00
2013-12-1,65,52,41,57,49,40,100,90,67,30.27,30.02,5,0,0,0.00
2013-12-2,65,58,48,61,54,47,99,89,62,30.00,29.79,7,1,0,0.00
2013-12-3,69,64,60,66,63,60,99,96,89,29.84,29.75,12,3,0,0.01
2013-12-4,73,67,63,70,67,63,100,98,91,29.96,29.83,6,1,0,0.00
2013-12-5,71,68,66,71,68,66,100,100,98,30.03,29.94,13,3,0,0.02
2013-12-6,70,65,49,70,65,49,100,99,95,30.17,29.95,9,2,0,0.53
2013-12-7,49,44,42,49,43,41,100,98,96,30.30,30.17,6,0,0,0.09
2013-12-8,57,50,43,57,50,43,100,99,97,30.23,30.03,4,0,0,0.00
2013-12-9,69,60,55,64,58,55,100,95,83,30.13,30.03,5,0,0,0.03
2013-12-10,60,47,40,59,44,38,98,90,73,30.35,30.04,6,1,0,0.02
2013-12-11,61,49,37,50,42,35,93,77,57,30.39,30.30,5,0,0,0.01
2013-12-12,58,48,38,42,35,30,78,63,39,30.49,30.37,4,0,0,0.01
2013-12-13,61,50,36,55,44,29,92,80,73,30.37,29.99,13,2,0,0.00
2013-12-14,71,63,51,67,61,48,98,93,85,30.02,29.82,10,2,0,0.05
2013-12-15,52,45,36,48,40,35,94,82,65,30.31,30.02,14,1,0,0.00
2013-12-16,59,42,32,45,37,31,98,85,49,30.36,30.25,4,0,0,0.00
2013-12-17,62,45,33,49,40,33,100,83,49,30.34,30.23,6,0,0,0.00
2013-12-18,63,48,37,50,43,36,99,84,57,30.37,30.23,8,1,0,0.00
2013-12-19,69,55,39,62,52,39,100,92,77,30.23,30.06,12,3,0,0.00
2013-12-20,70,66,61,68,65,60,99,96,91,30.11,29.97,11,3,0,0.00
2013-12-21,70,67,65,70,67,65,100,99,98,29.97,29.81,11,5,0,0.00
2013-12-22,69,59,55,69,59,55,100,100,98,30.12,29.83,12,1,0,1.61
2013-12-23,56,47,37,56,45,35,100,93,84,30.44,30.10,6,1,0,0.12
2013-12-24,53,40,33,37,34,31,94,78,51,30.51,30.37,5,0,0,0.02
2013-12-25,49,40,32,37,33,29,90,74,56,30.41,30.29,5,0,0,0.01
2013-12-26,54,45,37,42,37,33,86,74,51,30.37,30.27,2,0,0,0.03
2013-12-27,62,51,42,43,40,38,86,66,48,30.39,30.25,4,0,0,0.00
2013-12-28,52,48,46,50,48,41,100,97,65,30.26,29.93,5,0,0,0.04
2013-12-29,59,50,44,53,49,43,100,95,79,30.12,29.94,6,0,0,0.06
2013-12-30,56,49,41,52,47,41,100,95,82,30.31,30.11,4,0,0,0.01
2013-12-31,50,46,44,49,44,42,98,93,88,30.42,30.29,3,0,0,0.03
2014-1-1,59,52,44,57,51,43,100,98,93,30.32,30.02,4,0,0,0.02
2014-1-2,58,52,37,58,48,29,100,85,66,30.34,29.92,19,2,0,0.02